OPS 4682 DEB, 1399

Orbit data source: Space-Track

OPS 4682 DEB, 1399 is space debris in LEO originally from a launch on Sat, 03 Apr 1965 UTC launched from the Air Force Western Test Range (AFWTR). Debris objects in space refer to the collection of defunct objects orbiting the Earth. Examples of debris include non-operational satellites, rocket bodies, and fragments generated from explosions, collisions, or faulty payload assembly.

Loading next visibility...
Identifier
1399, 1965-027E
Orbit
LEO
Country
Flag of USUS
Related business
Manufacturer
Unknown
Mission
Spacecraft
Bus & Motor
Unknown
Mass
Unknown
Launch date (UTC)
1965-04-03 (61 years ago)
Launch vehicle
Unknown
Launch site
Air Force Western Test Range (AFWTR)
Object type
Payload
Rocket body
Debris
Shape & HBR
Unknown shape, 0.1 m
Radar Cross Section
Small (<0.1 m²)

Expand to show TLE details & history
Last TLE update: 3 days ago

TLE from 3 days ago
0 OPS 4682 DEB
1 01399U 65027E   25300.18782611  .00000031  00000-0  79424-4 0  9990
2 01399  90.2663  19.3303 0010828 175.0461 185.0770 12.99800148602831
Epoch: 2025-10-27T04:30Z
TLE epoch observation values (Epoch: 2025-10-27T04:30:28.175Z)
Latitude
-0.00005°
Longitude
-84.08036°
Altitude
1,273.996 km
Speed
7.215 km/s
True Right ascension
01h 17m 19s
True Declination
0° 00' 00"
Sunlit
Object was in full shadow at epoch
Visualization orbit readout
Latitude
Unknown
Longitude
Unknown
Altitude
Unknown
Speed
Unknown
Apparent Right ascension
Unknown
Apparent Declination
Unknown
Sunlit
N/A
Visualization observer readout
Local Sidereal Time
02:43:13
Azimuth
Unknown
Elevation
Unknown
Doppler factor
Unknown
Orbital elements
Apogee altitude
1,268.268 km
Perigee altitude
1,251.727 km
Semi-major axis
7,638.134 km
Eccentricity
0.00108
Inclination
90.2663°
RAAN
19.3303°
Arg. of periapsis
175.0461°
True anomaly
185.06603°
Mean anomaly
185.077°
Eccentric anomaly
185.07152°
Mean motion
3.25134 °/min
Orbital period
110.72 mins
BSTAR
0.000079424
Loading maneuver chart data...
Computing Atmospheric mass density...
Loading historical data...
Loading historical data...
Loading historical data...
Loading historical data...
Loading historical data...
Loading historical data...
Loading historical data...

Documentation

Showing up to 5 results
|